EW3230 Weather Reports


time (UTC)temp
C
wind
direction
speed
KPH
gust
KPH
rain 1hr
cm
rain 24hr
cm
rain mn
cm
humidity
%
barometer
mb
20260902193933 23 75 1.6 9.7 0.00 0.03 0.00 68 1021.3
20260902192933 23 79 0.0 6.4 0.00 0.03 0.00 67 1021.3
20260902191935 23 260 1.6 8.0 0.00 0.05 0.00 66 1021.3
20260902190935 23 60 1.6 9.7 0.00 0.05 0.00 67 1021.2
20260902185939 23 104 1.6 9.7 0.00 0.05 0.00 66 1021.1
20260902185934 23 121 1.6 8.0 0.00 0.05 0.00 68 1021.3
20260902183930 23 78 1.6 11.3 0.00 0.08 0.00 66 1021.1
20260902182934 23 108 1.6 9.7 0.00 0.13 0.00 67 1021.1
20260902181931 23 108 1.6 8.0 0.00 0.25 0.00 66 1021.2
20260902180938 23 129 1.6 8.0 0.00 0.25 0.00 67 1021.5
20260902180932 23 108 3.2 11.3 0.00 0.25 0.00 66 1021.4
20260902174932 23 99 1.6 8.0 0.00 0.25 0.00 68 1021.5
20260902174432 23 44 3.2 12.9 0.00 0.25 0.00 67 1021.4
20260902172932 23 86 1.6 9.7 0.00 0.25 0.00 67 1021.5
20260902171931 23 46 3.2 14.5 0.00 0.25 0.00 66 1021.5
20260902171448 23 44 1.6 12.9 0.00 0.25 0.00 67 1021.6
20260902165933 23 91 1.6 9.7 0.00 0.25 0.00 67 1021.6
20260902164933 23 75 3.2 9.7 0.00 0.25 0.00 66 1021.6
20260902163931 23 104 1.6 6.4 0.00 0.25 0.00 66 1021.7
20260902162932 23 74 1.6 9.7 0.00 0.25 0.00 67 1021.7
20260902161932 23 61 1.6 11.3 0.00 0.25 0.00 66 1021.9
20260902160925 23 172 0.0 3.2 0.00 0.25 0.00 67 1022.1
20260902155924 23 105 0.0 3.2 0.00 0.25 0.00 67 1022.2
20260902154926 22 205 0.0 4.8 0.00 0.25 0.00 68 1022.1
20260902153926 22 107 0.0 8.0 0.00 0.25 0.00 70 1022.1
20260902152926 22 103 1.6 14.5 0.00 0.25 0.00 71 1022.1
20260902151926 22 15 1.6 11.3 0.00 0.25 0.00 70 1022.1
20260902150926 21 69 1.6 12.9 0.00 0.25 0.00 70 1022.2
20260902145926 21 112 1.6 12.9 0.00 0.25 0.00 71 1022.3
20260902144925 21 74 3.2 9.7 0.00 0.25 0.00 71 1022.1
20260902143922 21 83 4.8 12.9 0.00 0.25 0.00 71 1021.9
20260902142922 21 58 3.2 9.7 0.00 0.25 0.00 72 1022.0
20260902141919 21 100 3.2 11.3 0.00 0.25 0.00 74 1021.9
20260902140919 21 61 3.2 11.3 0.00 0.28 0.00 74 1021.7
20260902135920 21 0 1.6 14.5 0.00 0.28 0.00 74 1021.6
20260902134919 21 91 4.8 16.1 0.00 0.28 0.00 75 1021.5
20260902133920 20 56 1.6 8.0 0.00 0.28 0.00 75 1021.4
20260902132922 20 54 1.6 8.0 0.00 0.28 0.00 74 1021.5
20260902131920 19 110 1.6 9.7 0.00 0.28 0.00 69 1021.5
20260902130918 18 87 0.0 3.2 0.00 0.28 0.00 62 1021.6
20260902130416 18 71 0.0 3.2 0.00 0.28 0.00 61 1021.7
20260902124915 17 87 0.0 1.6 0.00 0.28 0.00 59 1021.7
20260902123914 17 92 0.0 0.0 0.00 0.28 0.00 59 1021.6
20260902122915 17 91 0.0 1.6 0.00 0.28 0.00 59 1021.8
20260902121913 17 263 0.0 0.0 0.00 0.28 0.00 59 1021.9
20260902120914 16 263 0.0 0.0 0.00 0.28 0.00 60 1022.1
20260902115914 16 262 0.0 0.0 0.00 0.28 0.00 60 1022.1
20260902114914 16 262 0.0 0.0 0.00 0.28 0.00 61 1021.9
20260902114410 15 263 0.0 0.0 0.00 0.28 0.00 61 1021.7
20260902113410 15 263 0.0 0.0 0.00 0.28 0.00 61 1021.7
20260902111907 15 262 0.0 0.0 0.00 0.28 0.00 61 1021.7
20260902111409 15 262 0.0 0.0 0.00 0.28 0.00 61 1021.5
20260902104908 15 263 0.0 0.0 0.00 0.28 0.00 61 1021.2
20260902103907 15 263 0.0 0.0 0.00 0.28 0.00 61 1021.1
20260902102908 15 263 0.0 0.0 0.00 0.28 0.00 61 1021.0
20260902101907 15 263 0.0 0.0 0.00 0.28 0.00 61 1020.9
20260902100901 15 263 0.0 0.0 0.00 0.28 0.00 61 1020.9
20260902095902 15 263 0.0 0.0 0.00 0.28 0.00 61 1021.0
20260902094901 15 263 0.0 0.0 0.00 0.28 0.00 61 1020.9
20260902093901 15 263 0.0 0.0 0.00 0.28 0.00 61 1020.8
20260902092901 15 263 0.0 1.6 0.00 0.28 0.00 61 1020.8
20260902091903 15 263 0.0 0.0 0.00 0.28 0.00 61 1020.6
20260902090902 15 262 0.0 0.0 0.00 0.28 0.00 61 1020.5
20260902090402 15 262 0.0 0.0 0.00 0.28 0.00 61 1020.4
20260902084900 16 263 0.0 0.0 0.00 0.28 0.00 61 1020.3
20260902083855 16 263 0.0 0.0 0.00 0.28 0.00 61 1020.4
20260902082855 16 263 0.0 1.6 0.00 0.28 0.00 61 1020.2
20260902080856 15 263 0.0 0.0 0.00 0.28 0.00 61 1020.5
20260902075900 15 262 0.0 0.0 0.00 0.28 0.00 61 1020.3
20260902074855 15 263 0.0 1.6 0.00 0.28 0.00 61 1020.3
20260902074356 15 263 0.0 0.0 0.00 0.28 0.00 61 1020.4
20260902072857 15 300 0.0 0.0 0.00 0.28 0.00 61 1020.3
20260902072357 15 63 0.0 0.0 0.00 0.28 0.00 61 1020.1
20260902070851 15 78 0.0 0.0 0.00 0.28 0.00 62 1019.9
20260902065851 15 77 0.0 0.0 0.00 0.28 0.00 62 1020.0
20260902064849 15 78 0.0 0.0 0.00 0.28 0.00 62 1020.0
20260902063848 15 78 0.0 0.0 0.00 0.28 0.00 62 1020.2
20260902062851 15 79 0.0 0.0 0.00 0.28 0.00 62 1020.3
20260902061850 15 78 0.0 0.0 0.00 0.28 0.00 62 1020.3
20260902060849 15 63 0.0 0.0 0.00 0.28 0.00 63 1020.4
20260902055849 15 63 0.0 1.6 0.00 0.28 0.00 63 1020.5
20260902054848 15 349 0.0 0.0 0.00 0.28 0.00 63 1020.4
20260902053844 15 328 0.0 1.6 0.00 0.28 0.00 63 1020.3
20260902052843 15 328 0.0 0.0 0.00 0.28 0.00 63 1020.1
20260902051845 15 328 0.0 0.0 0.00 0.28 0.00 63 1020.0
20260902050850 15 328 0.0 0.0 0.00 0.28 0.00 63 1019.7
20260902050843 15 328 0.0 0.0 0.00 0.28 0.00 63 1019.8
20260902045344 15 328 0.0 0.0 0.00 0.28 0.00 63 1019.6
20260902043843 15 305 0.0 0.0 0.00 0.28 0.00 63 1019.7
20260902042845 15 306 0.0 0.0 0.00 0.28 0.00 63 1019.5
20260902041842 15 51 0.0 0.0 0.00 0.28 0.00 63 1019.2
20260902040841 15 51 0.0 0.0 0.00 0.28 0.00 63 1019.4
20260902035840 15 51 0.0 1.6 0.00 0.28 0.28 63 1019.4
20260902034841 15 65 0.0 0.0 0.00 0.28 0.28 63 1019.4
20260902033840 15 65 0.0 0.0 0.00 0.28 0.28 64 1019.5
20260902032852 15 65 0.0 0.0 0.00 0.28 0.28 64 1019.4
20260902032339 15 67 0.0 0.0 0.00 0.28 0.28 63 1019.3
20260902030839 15 66 0.0 0.0 0.00 0.28 0.28 64 1019.4
20260902025839 15 67 0.0 0.0 0.00 0.28 0.28 64 1019.4
20260902024838 15 67 0.0 0.0 0.00 0.28 0.28 64 1019.3
20260902023837 15 67 0.0 0.0 0.00 0.28 0.28 64 1019.3
20260902022837 15 67 0.0 0.0 0.00 0.28 0.28 64 1019.1
20260902021837 15 60 0.0 0.0 0.00 0.28 0.28 64 1019.2
20260902020837 15 60 0.0 0.0 0.00 0.28 0.28 64 1018.9
20260902015837 15 60 0.0 0.0 0.00 0.28 0.28 64 1018.7
20260902014837 15 49 0.0 1.6 0.00 0.28 0.28 64 1018.8
20260902014340 15 49 0.0 0.0 0.00 0.28 0.28 65 1019.1
20260902012836 15 50 0.0 0.0 0.00 0.28 0.28 64 1019.1
20260902011833 15 48 0.0 0.0 0.00 0.28 0.28 65 1019.1
20260902010844 16 49 0.0 0.0 0.00 0.28 0.28 64 1018.7
20260902005831 16 50 0.0 0.0 0.00 0.28 0.28 64 1018.9
20260902004832 16 46 0.0 0.0 0.00 0.28 0.28 64 1019.1
20260902004331 16 46 0.0 0.0 0.00 0.28 0.28 64 1019.1
20260902002831 16 49 0.0 1.6 0.00 0.28 0.28 64 1019.1
20260902002334 16 54 0.0 4.8 0.00 0.28 0.28 63 1019.1
20260902001333 16 57 0.0 3.2 0.00 0.28 0.28 62 1019.0
20260901235832 16 75 0.0 1.6 0.00 0.28 0.28 62 1018.8
20260901234828 16 76 0.0 0.0 0.00 0.28 0.28 62 1018.7
20260901233825 17 56 0.0 1.6 0.00 0.28 0.28 62 1018.5
20260901232825 17 52 0.0 1.6 0.00 0.28 0.28 62 1018.5
20260901231825 17 52 0.0 1.6 0.00 0.28 0.28 62 1018.6
20260901230826 17 58 0.0 1.6 0.00 0.28 0.28 63 1018.5
20260901225825 17 56 0.0 1.6 0.00 0.28 0.28 63 1018.5
20260901224825 17 60 0.0 1.6 0.03 0.28 0.28 63 1018.4
20260901223826 17 228 0.0 1.6 0.03 0.28 0.28 63 1018.5
20260901222826 17 228 0.0 0.0 0.03 0.28 0.28 63 1018.6
20260901221822 17 228 0.0 0.0 0.03 0.28 0.28 64 1018.7
20260901220819 17 228 0.0 0.0 0.03 0.28 0.28 64 1018.9
20260901220321 17 228 0.0 0.0 0.03 0.28 0.28 63 1019.0
20260901214819 17 228 0.0 0.0 0.00 0.25 0.25 64 1018.8
20260901213819 17 228 0.0 0.0 0.00 0.25 0.25 64 1019.1
20260901212818 17 228 0.0 0.0 0.00 0.25 0.25 64 1018.8
20260901211819 17 228 0.0 1.6 0.00 0.25 0.25 64 1018.6
20260901211319 17 206 0.0 0.0 0.00 0.25 0.25 64 1018.5
20260901205817 17 206 0.0 0.0 0.00 0.25 0.25 64 1018.3
20260901204813 17 205 0.0 0.0 0.00 0.25 0.25 64 1018.2
20260901203812 17 206 0.0 0.0 0.00 0.25 0.25 64 1018.2
20260901202812 17 183 0.0 0.0 0.03 0.25 0.25 64 1018.3
20260901202311 17 183 0.0 0.0 0.03 0.25 0.25 64 1018.2
20260901200810 17 183 0.0 0.0 0.03 0.25 0.25 65 1018.1
20260901200311 17 183 0.0 0.0 0.03 0.25 0.25 65 1018.0
20260901194809 17 183 0.0 0.0 0.03 0.25 0.25 65 1018.2